Regional Weather Roundup
Issued by NWS

Home | Current Version | Previous Version | Text Only | Print | Product List | Glossary Off
Versions: 1 2 3 4 5 6 7 8 9 10 11 12 13 14 15 16 17 18 19 20 21 22 23 24 25 26 27 28

000
ASUS45 KBOU 291507
RWRCO

WEATHER ROUNDUP FOR COLORADO
NATIONAL WEATHER SERVICE DENVER/BOULDER CO
900 AM MDT FRI APR 29 2016

NOTE: "FAIR" INDICATES FEW OR NO CLOUDS BELOW 12000 FEET WITH NO
SIGNIFICANT WEATHER AND/OR OBSTRUCTIONS TO VISIBILITY.

COZ001>005-013-030-031-291600-
...NORTHWEST COLORADO...

CITY           SKY/WX    TMP DP  RH WIND       PRES   REMARKS
CRAIG          CLOUDY    40  34  79 CALM      29.88R
HAYDEN         CLOUDY    36  30  80 W6        29.87R
MEEKER         LGT RAIN  41  35  79 CALM      29.85F
MOUNT WERNER   NOT AVBL
STEAMBOAT SPGS CLOUDY    37  33  86 W5        29.86S
WALDEN         CLOUDY    30  27  86 W5        29.90S WCI  25
$$

COZ006>008-011-291600-
...WEST CENTRAL VALLEYS...

CITY           SKY/WX    TMP DP  RH WIND       PRES   REMARKS
GRAND JUNCTION CLOUDY    42  39  89 W5        29.86R
MONTROSE       FAIR      42  36  79 N6        29.87R
EAGLE          PTSUNNY   39  37  93 CALM      29.88S
RIFLE          FAIR      45  38  76 W5        29.84R
DELTA          NOT AVBL
NUCLA          NOT AVBL
$$

COZ017>023-064>068-291600-
...SOUTHWEST COLORADO...

CITY           SKY/WX    TMP DP  RH WIND       PRES   REMARKS
DURANGO        CLOUDY    38  34  85 CALM      29.86R
CORTEZ         CLOUDY    39  32  76 NE3       29.87R
PAGOSA SPRINGS CLOUDY    35  35  99 SW7       29.85S WCI  29
TELLURIDE      FAIR      33  24  70 W5        29.89S WCI  28
WOLF CREEK PAS NOT AVBL
$$

COZ009-010-012-014-032>034-037-058>063-291600-
...CENTRAL COLORADO...

CITY           SKY/WX    TMP DP  RH WIND       PRES   REMARKS
ASPEN          PTSUNNY   36  32  85 N5        29.84F
BUENA VISTA    LGT SNOW  31  29  92 W3        29.91F VSB 3/4
COPPER MTN     NOT AVBL
BERTHOUD PASS  HAZE      14   5  67 E12G31    29.92S VSB<1/4 WCI   0
COTTONWOOD PAS SNOW      30  28  93 E3        29.91F VSB 1/4
GUNNISON       CLOUDY    34  30  86 CALM      29.88S
KREMMLING      FAIR      36  32  87 CALM      29.89S
LEADVILLE      CLOUDY    24  23  96 S8        29.88F FOG     WCI  15
MONARCH PASS   CLOUDY    19  16  86 NE23      29.96F WCI   2
SALIDA         CLOUDY    32  31  95 E5        29.98F WCI  27
SUNLIGHT       CLOUDY    30  28  93 CALM      29.94S
WILKERSON PASS SNOW     N/A N/A N/A E9G18     29.94F VSB 1/2
$$

COZ069>075-291600-
...SAN LUIS VALLEY/SANGRE DE CRISTO MOUNTAINS...

CITY           SKY/WX    TMP DP  RH WIND       PRES   REMARKS
ALAMOSA        SNOW      32  30  92 E16G25    29.84F VSB 1/2 WCI  21
LA VETA PASS   SNOW      21  19  93 MISG      29.89R VSB 1/2
SAGUACHE       LGT SNOW  32  32 100 W3        29.86R VSB 1
$$

COZ035-036-038>040-291600-
...NORTHERN COLORADO FRONT RANGE...

CITY           SKY/WX    TMP DP  RH WIND       PRES   REMARKS
DENVER INTL AP SNOW      33  30  88 E6        29.97R VSB 1/4 WCI  28
DMNS CITY PARK   N/A     34  33  98 E13       29.98R WCI  25
AURORA         LGT SNOW  32  32 100 E5        29.98R VSB 3/4 WCI  28
FRONT RANGE AP SNOW      32  32 100 E6        29.99R VSB 1/2 WCI  26
ERIE MUNI ARPT MIX PCPN  33  33 100 CALM      29.98S
BOULDER MUN AP LGT RAIN  34  34 100 NE3       29.97S
CENTENNIAL     SNOW      33  32  96 E5        29.96S VSB 1/2 WCI  29
BROOMFIELD     FOG       34  34 100 NE5       29.97S VSB 1   WCI  30
FORT COLLINS   CLOUDY    36  34  93 SE5       29.99S
LONGMONT       MIX PCPN  37  35  94 CALM      30.00S
$$

COZ041-046-047-076>085-087-088-291600-
...PIKES PEAK/PALMER DIVIDE AND SOUTHERN FOOTHILLS...

CITY           SKY/WX    TMP DP  RH WIND       PRES   REMARKS
COLO. SPRINGS  SNOW      33  30  88 N8        29.94F VSB 1/4 WCI  26
A. F. ACADEMY  SNOW      32  32 100 CALM      29.93F VSB 1/2
SCHRIEVER AFB  NOT AVBL
ELLICOTT       NOT AVBL
FALCON         SNOW      32  31  95 N7        29.94F VSB 1/2 WCI  26
FORT CARSON    LGT SNOW  32  32 100 NW8       29.93F VSB 3/4 WCI  25
LIMON          SNOW      32  31  96 N3        29.96S VSB 1/2
MONUMENT HILL  SNOW      30  28  93 E5        29.96F VSB 1/2 WCI  25
TRINIDAD       LGT SNOW  33  30  88 N9        29.89F VSB 1   WCI  25
$$

COZ042>045-048>051-090-091-291600-
...NORTHEAST COLORADO...

CITY           SKY/WX    TMP DP  RH WIND       PRES   REMARKS
GREELEY ARPT   CLOUDY    36  34  93 E6        29.99F
AKRON          LGT RAIN  36  35  96 E10       29.96F FOG
BURLINGTON     LGT RAIN  39  36  89 NE17      29.95F
WRAY           NOT AVBL
STERLING       CLOUDY    37  37 100 NE5       29.99R
HOLYOKE        NOT AVBL
FORT MORGAN    LGT SNOW  36  35  96 NE6       30.00R
$$

COZ086-089-092>099-291600-
...SOUTHEAST COLORADO...

CITY           SKY/WX    TMP DP  RH WIND       PRES   REMARKS
PUEBLO         LGT SNOW  34  31  88 W6        29.95F FOG     WCI  29
LA JUNTA       LGT SNOW  34  32  92 N12       29.93F FOG     WCI  25
LAMAR          LGT RAIN  42  40  92 NE18G26   29.88F
SPRINGFIELD      N/A     39  39 100 NE18      29.85F
$$




USA.gov is the U.S. government's official web portal to all federal, state and local government web resources and services.